Location: CNYAC Observatory
(43.2150°N, 74.9500°W)
Time: 08:17:36
(UTC-04:00)

Cosmos 1975 Rocket - Visible Passes

Search period start: 21 April 2014 00:00
Search period end: 01 May 2014 00:00
Orbit: 606 x 635 km, 82.5° (Epoch: 20 April)

Date Brightness Start Highest point End Pass type
(mag) Time Alt. Az. Time Alt. Az. Time Alt. Az.
21 Apr 3.9 21:12:52 10° SSW 21:17:08 52° WNW 21:21:29 10° N visible
22 Apr 5.2 21:31:26 10° SW 21:35:14 28° WNW 21:39:05 10° NNW visible
23 Apr 6.0 21:50:40 10° WSW 21:53:26 16° WNW 21:56:14 10° NNW visible
24 Apr 3.1 20:28:44 10° S 20:33:07 89° W 20:37:35 10° N visible
25 Apr 4.3 20:46:53 10° SSW 20:51:07 47° WNW 20:55:26 10° N visible
26 Apr 5.5 21:05:32 10° SW 21:09:14 26° WNW 21:12:58 10° NNW visible
27 Apr 6.2 21:24:56 10° WSW 21:27:27 15° WNW 21:29:59 10° NNW visible
30 Apr 5.9 20:39:39 10° SW 20:43:13 23° WNW 20:46:49 10° NNW visible
